Location: Unspecified
(43.4680°N, 87.1740°E)
Time: 20:47:46
(UTC+00:00)

Cosmos 2219 Rocket - Pass Details

Date: 17 April 2021
Orbit: 826 x 848 km, 71.0° (Epoch: 11 May)

Event Time Altitude Azimuth Distance (km) Brightness Sun altitude
Rises 16:04:16 0° 318° (NW) 3,418 6.6 -28.6°
Reaches altitude 10° 16:07:43 10° 297° (WNW) 2,477 5.4 -29.0°
Maximum altitude 16:10:55 15° 262° (W) 2,105 4.5 -29.3°
Enters shadow 16:13:08 13° 237° (WSW) 2,287 4.4 -29.5°
